This is the latest recevied weather packets stored in our database for station/object N1ICS-1. If no packets are shown the sender has not sent any weather packets the latest 10 day(s).
| Time | Temp. | Humidity | Pressure | Rain* | Wind** | Luminosity | Snow |
|---|---|---|---|---|---|---|---|
| 1777747802 | 8.89° C | 48% | 1019.5 hPa | 0 mm | - | 322 W/m² | - |
| 1777747502 | 8.89° C | 50% | 1019.6 hPa | 0 mm | - | 921 W/m² | - |
| 1777747202 | 8.89° C | 57% | 1019.6 hPa | 0 mm | - | 934 W/m² | - |
| 1777746902 | 8.33° C | 54% | 1019.8 hPa | 0 mm | - | 402 W/m² | - |
| 1777746602 | 8.89° C | 53% | 1019.6 hPa | 0 mm | - | 525 W/m² | - |
| 1777746302 | 8.33° C | 56% | 1019.6 hPa | 0 mm | - | 373 W/m² | - |
| 1777746002 | 8.89° C | 52% | 1020 hPa | 0 mm | - | 446 W/m² | - |
| 1777745701 | 7.78° C | 52% | 1019.8 hPa | 0 mm | - | 476 W/m² | - |
| 1777745402 | 7.78° C | 53% | 1019.9 hPa | 0 mm | - | 635 W/m² | - |
| 1777745102 | 7.78° C | 56% | 1020 hPa | 0 mm | - | 397 W/m² | - |
| 1777744803 | 7.78° C | 56% | 1020 hPa | 0 mm | - | 363 W/m² | - |
| 1777744502 | 8.33° C | 52% | 1020 hPa | 0 mm | - | 433 W/m² | - |
| 1777744202 | 8.33° C | 54% | 1020.1 hPa | 0 mm | - | 577 W/m² | - |
| 1777743902 | 7.78° C | 53% | 1020 hPa | 0 mm | - | 550 W/m² | - |
| 1777743602 | 8.33° C | 55% | 1020.1 hPa | 0 mm | - | 358 W/m² | - |
| 1777743302 | 7.78° C | 56% | 1020.1 hPa | 0 mm | - | 416 W/m² | - |
| 1777743002 | 7.78° C | 57% | 1020.2 hPa | 0 mm | - | 469 W/m² | - |
| 1777742702 | 7.78° C | 55% | 1020.1 hPa | 0 mm | - | 435 W/m² | - |
| 1777742402 | 7.78° C | 54% | 1020.1 hPa | 0 mm | - | 398 W/m² | - |
| 1777742102 | 7.78° C | 57% | 1020.2 hPa | 0 mm | - | 352 W/m² | - |
| 1777741802 | 7.22° C | 57% | 1020.2 hPa | 0 mm | - | 283 W/m² | - |
| 1777741501 | 7.22° C | 54% | 1020.3 hPa | 0 mm | - | 342 W/m² | - |
| 1777741202 | 7.78° C | 56% | 1020.2 hPa | 0 mm | - | 378 W/m² | - |
| 1777740902 | 7.78° C | 54% | 1020.3 hPa | 0 mm | - | 350 W/m² | - |
| 1777740601 | 7.22° C | 58% | 1020.4 hPa | 0 mm | - | 302 W/m² | - |
* Rain latest hour (hover to see other rain measurements)
** Current wind speed in m/s (hover to see current wind gust speed)